Year,Month,Day,Hour,Minute,Value (Times are PST for temperature in C)
2008,11,13,00,00,11.10
2008,11,13,00,01,11.10
2008,11,13,00,02,11.10
2008,11,13,00,03,11.10
2008,11,13,00,04,11.10
2008,11,13,00,05,11.10
2008,11,13,00,06,11.10
2008,11,13,00,07,11.10
2008,11,13,00,08,11.10
2008,11,13,00,09,11.10
2008,11,13,00,10,11.10
2008,11,13,00,11,11.10
2008,11,13,00,12,11.10
2008,11,13,00,13,11.10
2008,11,13,00,14,11.10
2008,11,13,00,15,11.10
2008,11,13,00,16,11.00
2008,11,13,00,17,11.00
2008,11,13,00,18,10.90
2008,11,13,00,19,10.90
2008,11,13,00,20,10.80
2008,11,13,00,21,10.80
2008,11,13,00,22,10.70
2008,11,13,00,23,10.60
2008,11,13,00,24,10.60
2008,11,13,00,25,10.50
2008,11,13,00,26,10.40
2008,11,13,00,27,10.30
2008,11,13,00,28,10.20
2008,11,13,00,29,10.20
2008,11,13,00,30,10.10
2008,11,13,00,31,10.00
2008,11,13,00,32,9.90
2008,11,13,00,33,9.80
2008,11,13,00,34,9.80
2008,11,13,00,35,9.70
2008,11,13,00,36,9.60
2008,11,13,00,37,9.60
2008,11,13,00,38,9.50
2008,11,13,00,39,9.50
2008,11,13,00,40,9.50
2008,11,13,00,41,9.40
2008,11,13,00,42,9.40
2008,11,13,00,43,9.40
2008,11,13,00,44,9.40
2008,11,13,00,45,9.40
2008,11,13,00,46,9.40
2008,11,13,00,47,9.30
2008,11,13,00,48,9.30
2008,11,13,00,49,9.30
2008,11,13,00,50,9.30
2008,11,13,00,51,9.20
2008,11,13,00,52,9.20
2008,11,13,00,53,9.20
2008,11,13,00,54,9.20
2008,11,13,00,55,9.10
2008,11,13,00,56,9.10
2008,11,13,00,57,9.10
2008,11,13,00,58,9.00
2008,11,13,00,59,9.00
2008,11,13,01,00,8.90
2008,11,13,01,01,8.90
2008,11,13,01,02,8.80
2008,11,13,01,03,8.80
2008,11,13,01,04,8.80
2008,11,13,01,05,8.70
2008,11,13,01,06,8.70
2008,11,13,01,07,8.70
2008,11,13,01,08,8.60
2008,11,13,01,09,8.60
2008,11,13,01,10,8.60
2008,11,13,01,11,8.50
2008,11,13,01,12,8.50
2008,11,13,01,13,8.50
2008,11,13,01,14,8.40
2008,11,13,01,15,8.40
2008,11,13,01,16,8.40
2008,11,13,01,17,8.30
2008,11,13,01,18,8.30
2008,11,13,01,19,8.30
2008,11,13,01,20,8.30
2008,11,13,01,21,8.30
2008,11,13,01,22,8.30
2008,11,13,01,23,8.30
2008,11,13,01,24,8.30
2008,11,13,01,25,8.20
2008,11,13,01,26,8.20
2008,11,13,01,27,8.20
2008,11,13,01,28,8.20
2008,11,13,01,29,8.20
2008,11,13,01,30,8.20
2008,11,13,01,31,8.30
2008,11,13,01,32,8.30
2008,11,13,01,33,8.30
2008,11,13,01,34,8.30
2008,11,13,01,35,8.30
2008,11,13,01,36,8.30
2008,11,13,01,37,8.40
2008,11,13,01,38,8.40
2008,11,13,01,39,8.40
2008,11,13,01,40,8.30
2008,11,13,01,41,8.30
2008,11,13,01,42,8.30
2008,11,13,01,43,8.30
2008,11,13,01,44,8.30
2008,11,13,01,45,8.30
2008,11,13,01,46,8.30
2008,11,13,01,47,8.40
2008,11,13,01,48,8.50
2008,11,13,01,49,8.50
2008,11,13,01,50,8.50
2008,11,13,01,51,8.50
2008,11,13,01,52,8.50
2008,11,13,01,53,8.50
2008,11,13,01,54,8.40
2008,11,13,01,55,8.40
2008,11,13,01,56,8.40
2008,11,13,01,57,8.40
2008,11,13,01,58,8.40
2008,11,13,01,59,8.40
2008,11,13,02,00,8.50
2008,11,13,02,01,8.50
2008,11,13,02,02,8.50
2008,11,13,02,03,8.60
2008,11,13,02,04,8.60
2008,11,13,02,05,8.70
2008,11,13,02,06,8.70
2008,11,13,02,07,8.70
2008,11,13,02,08,8.70
2008,11,13,02,09,8.70
2008,11,13,02,10,8.70
2008,11,13,02,11,8.70
2008,11,13,02,12,8.70
2008,11,13,02,13,8.70
2008,11,13,02,14,8.70
2008,11,13,02,15,8.80
2008,11,13,02,16,8.80
2008,11,13,02,17,8.90
2008,11,13,02,18,8.90
2008,11,13,02,19,9.00
2008,11,13,02,20,9.10
2008,11,13,02,21,9.10
2008,11,13,02,22,9.20
2008,11,13,02,23,9.20
2008,11,13,02,24,9.20
2008,11,13,02,25,9.20
2008,11,13,02,26,9.20
2008,11,13,02,27,9.20
2008,11,13,02,28,9.20
2008,11,13,02,29,9.20
2008,11,13,02,30,9.20
2008,11,13,02,31,9.20
2008,11,13,02,32,9.20
2008,11,13,02,33,9.20
2008,11,13,02,34,9.20
2008,11,13,02,35,9.20
2008,11,13,02,36,9.10
2008,11,13,02,37,9.00
2008,11,13,02,38,9.00
2008,11,13,02,39,8.90
2008,11,13,02,40,8.90
2008,11,13,02,41,8.80
2008,11,13,02,42,8.80
2008,11,13,02,43,8.80
2008,11,13,02,44,8.80
2008,11,13,02,45,8.80
2008,11,13,02,46,8.80
2008,11,13,02,47,8.80
2008,11,13,02,48,8.70
2008,11,13,02,49,8.70
2008,11,13,02,50,8.70
2008,11,13,02,51,8.60
2008,11,13,02,52,8.60
2008,11,13,02,53,8.60
2008,11,13,02,54,8.60
2008,11,13,02,55,8.50
2008,11,13,02,56,8.50
2008,11,13,02,57,8.50
2008,11,13,02,58,8.40
2008,11,13,02,59,8.40
2008,11,13,03,00,8.30
2008,11,13,03,01,8.30
2008,11,13,03,02,8.30
2008,11,13,03,03,8.30
2008,11,13,03,04,8.20
2008,11,13,03,05,8.20
2008,11,13,03,06,8.20
2008,11,13,03,07,8.10
2008,11,13,03,08,8.10
2008,11,13,03,09,8.00
2008,11,13,03,10,7.90
2008,11,13,03,11,7.90
2008,11,13,03,12,7.80
2008,11,13,03,13,7.70
2008,11,13,03,14,7.70
2008,11,13,03,15,7.60
2008,11,13,03,16,7.50
2008,11,13,03,17,7.50
2008,11,13,03,18,7.40
2008,11,13,03,19,7.30
2008,11,13,03,20,7.30
2008,11,13,03,21,7.20
2008,11,13,03,22,7.20
2008,11,13,03,23,7.20
2008,11,13,03,24,7.20
2008,11,13,03,25,7.10
2008,11,13,03,26,7.00
2008,11,13,03,27,7.00
2008,11,13,03,28,6.90
2008,11,13,03,29,6.90
2008,11,13,03,30,6.90
2008,11,13,03,31,6.80
2008,11,13,03,32,6.80
2008,11,13,03,33,6.80
2008,11,13,03,34,6.80
2008,11,13,03,35,6.80
2008,11,13,03,36,6.70
2008,11,13,03,37,6.70
2008,11,13,03,38,6.70
2008,11,13,03,39,6.70
2008,11,13,03,40,6.70
2008,11,13,03,41,6.70
2008,11,13,03,42,6.60
2008,11,13,03,43,6.60
2008,11,13,03,44,6.60
2008,11,13,03,45,6.60
2008,11,13,03,46,6.60
2008,11,13,03,47,6.60
2008,11,13,03,48,6.60
2008,11,13,03,49,6.50
2008,11,13,03,50,6.50
2008,11,13,03,51,6.50
2008,11,13,03,52,6.50
2008,11,13,03,53,6.60
2008,11,13,03,54,6.60
2008,11,13,03,55,6.80
2008,11,13,03,56,6.90
2008,11,13,03,57,7.10
2008,11,13,03,58,7.20
2008,11,13,03,59,7.20
2008,11,13,04,00,7.20
2008,11,13,04,01,7.30
2008,11,13,04,02,7.30
2008,11,13,04,03,7.40
2008,11,13,04,04,7.50
2008,11,13,04,05,7.50
2008,11,13,04,06,7.60
2008,11,13,04,07,7.60
2008,11,13,04,08,7.60
2008,11,13,04,09,7.70
2008,11,13,04,10,7.70
2008,11,13,04,11,7.70
2008,11,13,04,12,7.80
2008,11,13,04,13,7.80
2008,11,13,04,14,7.80
2008,11,13,04,15,7.80
2008,11,13,04,16,7.80
2008,11,13,04,17,7.80
2008,11,13,04,18,7.80
2008,11,13,04,19,7.80
2008,11,13,04,20,7.80
2008,11,13,04,21,7.70
2008,11,13,04,22,7.70
2008,11,13,04,23,7.60
2008,11,13,04,24,7.60
2008,11,13,04,25,7.50
2008,11,13,04,26,7.50
2008,11,13,04,27,7.40
2008,11,13,04,28,7.40
2008,11,13,04,29,7.30
2008,11,13,04,30,7.30
2008,11,13,04,31,7.30
2008,11,13,04,32,7.20
2008,11,13,04,33,7.20
2008,11,13,04,34,7.20
2008,11,13,04,35,7.10
2008,11,13,04,36,7.10
2008,11,13,04,37,7.00
2008,11,13,04,38,6.90
2008,11,13,04,39,6.90
2008,11,13,04,40,6.80
2008,11,13,04,41,6.80
2008,11,13,04,42,6.80
2008,11,13,04,43,6.70
2008,11,13,04,44,6.70
2008,11,13,04,45,6.60
2008,11,13,04,46,6.60
2008,11,13,04,47,6.50
2008,11,13,04,48,6.50
2008,11,13,04,49,6.40
2008,11,13,04,50,6.40
2008,11,13,04,51,6.40
2008,11,13,04,52,6.30
2008,11,13,04,53,6.30
2008,11,13,04,54,6.20
2008,11,13,04,55,6.20
2008,11,13,04,56,6.20
2008,11,13,04,57,6.10
2008,11,13,04,58,6.10
2008,11,13,04,59,6.10
2008,11,13,05,00,6.00
2008,11,13,05,01,6.00
2008,11,13,05,02,6.00
2008,11,13,05,03,5.90
2008,11,13,05,04,5.90
2008,11,13,05,05,5.90
2008,11,13,05,06,5.90
2008,11,13,05,07,5.80
2008,11,13,05,08,5.80
2008,11,13,05,09,5.80
2008,11,13,05,10,5.80
2008,11,13,05,11,5.80
2008,11,13,05,12,5.80
2008,11,13,05,13,5.70
2008,11,13,05,14,5.70
2008,11,13,05,15,5.70
2008,11,13,05,16,5.70
2008,11,13,05,17,5.60
2008,11,13,05,18,5.60
2008,11,13,05,19,5.60
2008,11,13,05,20,5.60
2008,11,13,05,21,5.60
2008,11,13,05,22,5.60
2008,11,13,05,23,5.60
2008,11,13,05,24,5.60
2008,11,13,05,25,5.70
2008,11,13,05,26,5.70
2008,11,13,05,27,5.70
2008,11,13,05,28,5.70
2008,11,13,05,29,5.70
2008,11,13,05,30,5.70
2008,11,13,05,31,5.70
2008,11,13,05,32,5.70
2008,11,13,05,33,5.70
2008,11,13,05,34,5.70
2008,11,13,05,35,5.70
2008,11,13,05,36,5.70
2008,11,13,05,37,5.70
2008,11,13,05,38,5.70
2008,11,13,05,39,5.70
2008,11,13,05,40,5.70
2008,11,13,05,41,5.70
2008,11,13,05,42,5.60
2008,11,13,05,43,5.60
2008,11,13,05,44,5.60
2008,11,13,05,45,5.60
2008,11,13,05,46,5.60
2008,11,13,05,47,5.50
2008,11,13,05,48,5.50
2008,11,13,05,49,5.50
2008,11,13,05,50,5.40
2008,11,13,05,51,5.40
2008,11,13,05,52,5.40
2008,11,13,05,53,5.40
2008,11,13,05,54,5.30
2008,11,13,05,55,5.30
2008,11,13,05,56,5.30
2008,11,13,05,57,5.30
2008,11,13,05,58,5.20
2008,11,13,05,59,5.20
2008,11,13,06,00,5.20
2008,11,13,06,01,5.20
2008,11,13,06,02,5.20
2008,11,13,06,03,5.20
2008,11,13,06,04,5.20
2008,11,13,06,05,5.20
2008,11,13,06,06,5.20
2008,11,13,06,07,5.10
2008,11,13,06,08,5.10
2008,11,13,06,09,5.10
2008,11,13,06,10,5.10
2008,11,13,06,11,5.10
2008,11,13,06,12,5.10
2008,11,13,06,13,5.10
2008,11,13,06,14,5.10
2008,11,13,06,15,5.10
2008,11,13,06,16,5.10
2008,11,13,06,17,5.10
2008,11,13,06,18,5.00
2008,11,13,06,19,5.00
2008,11,13,06,20,5.00
2008,11,13,06,21,4.90
2008,11,13,06,22,4.90
2008,11,13,06,23,4.90
2008,11,13,06,24,4.90
2008,11,13,06,25,4.90
2008,11,13,06,26,4.80
2008,11,13,06,27,4.80
2008,11,13,06,28,4.80
2008,11,13,06,29,4.80
2008,11,13,06,30,4.80
2008,11,13,06,31,4.80
2008,11,13,06,32,4.80
2008,11,13,06,33,4.80
2008,11,13,06,34,4.80
2008,11,13,06,35,4.80
2008,11,13,06,36,4.80
2008,11,13,06,37,4.70
2008,11,13,06,38,4.70
2008,11,13,06,39,4.70
2008,11,13,06,40,4.70
2008,11,13,06,41,4.70
2008,11,13,06,42,4.70
2008,11,13,06,43,4.70
2008,11,13,06,44,4.70
2008,11,13,06,45,4.70
2008,11,13,06,46,4.60
2008,11,13,06,47,4.60
2008,11,13,06,48,4.60
2008,11,13,06,49,4.60
2008,11,13,06,50,4.60
2008,11,13,06,51,4.60
2008,11,13,06,52,4.50
2008,11,13,06,53,4.50
2008,11,13,06,54,4.50
2008,11,13,06,55,4.50
2008,11,13,06,56,4.40
2008,11,13,06,57,4.40
2008,11,13,06,58,4.40
2008,11,13,06,59,4.40
2008,11,13,07,00,4.30
2008,11,13,07,01,4.30
2008,11,13,07,02,4.30
2008,11,13,07,03,4.30
2008,11,13,07,04,4.30
2008,11,13,07,05,4.20
2008,11,13,07,06,4.20
2008,11,13,07,07,4.20
2008,11,13,07,08,4.20
2008,11,13,07,09,4.20
2008,11,13,07,10,4.10
2008,11,13,07,11,4.10
2008,11,13,07,12,4.10
2008,11,13,07,13,4.10
2008,11,13,07,14,4.10
2008,11,13,07,15,4.10
2008,11,13,07,16,4.10
2008,11,13,07,17,4.10
2008,11,13,07,18,4.10
2008,11,13,07,19,4.00
2008,11,13,07,20,4.00
2008,11,13,07,21,4.00
2008,11,13,07,22,4.00
2008,11,13,07,23,4.00
2008,11,13,07,24,3.90
2008,11,13,07,25,3.90
2008,11,13,07,26,3.90
2008,11,13,07,27,3.90
2008,11,13,07,28,3.90
2008,11,13,07,29,3.90
2008,11,13,07,30,3.90
2008,11,13,07,31,3.90
2008,11,13,07,32,3.90
2008,11,13,07,33,3.90
2008,11,13,07,34,3.90
2008,11,13,07,35,3.90
2008,11,13,07,36,3.90
2008,11,13,07,37,3.80
2008,11,13,07,38,3.80
2008,11,13,07,39,3.80
2008,11,13,07,40,3.80
2008,11,13,07,41,3.80
2008,11,13,07,42,3.80
2008,11,13,07,43,3.80
2008,11,13,07,44,3.80
2008,11,13,07,45,3.80
2008,11,13,07,46,3.80
2008,11,13,07,47,3.80
2008,11,13,07,48,3.80
2008,11,13,07,49,3.80
2008,11,13,07,50,3.80
2008,11,13,07,51,3.70
2008,11,13,07,52,3.70
2008,11,13,07,53,3.70
2008,11,13,07,54,3.70
2008,11,13,07,55,3.70
2008,11,13,07,56,3.70
2008,11,13,07,57,3.70
2008,11,13,07,58,3.70
2008,11,13,07,59,3.70
2008,11,13,08,00,3.60
2008,11,13,08,01,3.60
2008,11,13,08,02,3.60
2008,11,13,08,03,3.60
2008,11,13,08,04,3.60
2008,11,13,08,05,3.60
2008,11,13,08,06,3.60
2008,11,13,08,07,3.60
2008,11,13,08,08,3.60
2008,11,13,08,09,3.60
2008,11,13,08,10,3.60
2008,11,13,08,11,3.60
2008,11,13,08,12,3.60
2008,11,13,08,13,3.50
2008,11,13,08,14,3.60
2008,11,13,08,15,3.50
2008,11,13,08,16,3.50
2008,11,13,08,17,3.50
2008,11,13,08,18,3.50
2008,11,13,08,19,3.50
2008,11,13,08,20,3.50
2008,11,13,08,21,3.50
2008,11,13,08,22,3.50
2008,11,13,08,23,3.50
2008,11,13,08,24,3.50
2008,11,13,08,25,3.50
2008,11,13,08,26,3.50
2008,11,13,08,27,3.50
2008,11,13,08,28,3.50
2008,11,13,08,29,3.50
2008,11,13,08,30,3.50
2008,11,13,08,31,3.50
2008,11,13,08,32,3.50
2008,11,13,08,33,3.50
2008,11,13,08,34,3.50
2008,11,13,08,35,3.50
2008,11,13,08,36,3.50
2008,11,13,08,37,3.50
2008,11,13,08,38,3.50
2008,11,13,08,39,3.50
2008,11,13,08,40,3.50
2008,11,13,08,41,3.50
2008,11,13,08,42,3.50
2008,11,13,08,43,3.50
2008,11,13,08,44,3.50
2008,11,13,08,45,3.50
2008,11,13,08,46,3.50
2008,11,13,08,47,3.50
2008,11,13,08,48,3.50
2008,11,13,08,49,3.50
2008,11,13,08,50,3.50
2008,11,13,08,51,3.50
2008,11,13,08,52,3.50
2008,11,13,08,53,3.50
2008,11,13,08,54,3.50
2008,11,13,08,55,3.60
2008,11,13,08,56,3.60
2008,11,13,08,57,3.60
2008,11,13,08,58,3.60
2008,11,13,08,59,3.60
2008,11,13,09,00,3.60
2008,11,13,09,01,3.60
2008,11,13,09,02,3.60
2008,11,13,09,03,3.60
2008,11,13,09,04,3.70
2008,11,13,09,05,3.70
2008,11,13,09,06,3.70
2008,11,13,09,07,3.70
2008,11,13,09,08,3.70
2008,11,13,09,09,3.70
2008,11,13,09,10,3.80
2008,11,13,09,11,3.80
2008,11,13,09,12,3.80
2008,11,13,09,13,3.80
2008,11,13,09,14,3.80
2008,11,13,09,15,3.80
2008,11,13,09,16,3.80
2008,11,13,09,17,3.80
2008,11,13,09,18,3.80
2008,11,13,09,19,3.80
2008,11,13,09,20,3.80
2008,11,13,09,21,3.80
2008,11,13,09,22,3.80
2008,11,13,09,23,3.80
2008,11,13,09,24,3.90
2008,11,13,09,25,3.90
2008,11,13,09,26,3.90
2008,11,13,09,27,3.90
2008,11,13,09,28,3.90
2008,11,13,09,29,3.90
2008,11,13,09,30,3.90
2008,11,13,09,31,4.00
2008,11,13,09,32,4.00
2008,11,13,09,33,4.00
2008,11,13,09,34,4.00
2008,11,13,09,35,4.00
2008,11,13,09,36,4.00
2008,11,13,09,37,4.10
2008,11,13,09,38,4.10
2008,11,13,09,39,4.10
2008,11,13,09,40,4.10
2008,11,13,09,41,4.10
2008,11,13,09,42,4.20
2008,11,13,09,43,4.20
2008,11,13,09,44,4.20
2008,11,13,09,45,4.20
2008,11,13,09,46,4.30
2008,11,13,09,47,4.30
2008,11,13,09,48,4.30
2008,11,13,09,49,4.40
2008,11,13,09,50,4.40
2008,11,13,09,51,4.40
2008,11,13,09,52,4.50
2008,11,13,09,53,4.50
2008,11,13,09,54,4.50
2008,11,13,09,55,4.60
2008,11,13,09,56,4.60
2008,11,13,09,57,4.60
2008,11,13,09,58,4.60
2008,11,13,09,59,4.60
2008,11,13,10,00,4.70
2008,11,13,10,01,4.70
2008,11,13,10,02,4.70
2008,11,13,10,03,4.70
2008,11,13,10,04,4.70
2008,11,13,10,05,4.70
2008,11,13,10,06,4.80
2008,11,13,10,07,4.80
2008,11,13,10,08,4.80
2008,11,13,10,09,4.80
2008,11,13,10,10,4.90
2008,11,13,10,11,4.90
2008,11,13,10,12,4.90
2008,11,13,10,13,5.00
2008,11,13,10,14,5.10
2008,11,13,10,15,5.10
2008,11,13,10,16,5.10
2008,11,13,10,17,5.20
2008,11,13,10,18,5.20
2008,11,13,10,19,5.30
2008,11,13,10,20,5.30
2008,11,13,10,21,5.40
2008,11,13,10,22,5.40
2008,11,13,10,23,5.50
2008,11,13,10,24,5.60
2008,11,13,10,25,5.60
2008,11,13,10,26,5.60
2008,11,13,10,27,5.70
2008,11,13,10,28,5.70
2008,11,13,10,29,5.70
2008,11,13,10,30,5.80
2008,11,13,10,31,5.80
2008,11,13,10,32,5.80
2008,11,13,10,33,5.90
2008,11,13,10,34,5.90
2008,11,13,10,35,6.00
2008,11,13,10,36,6.10
2008,11,13,10,37,6.10
2008,11,13,10,38,6.20
2008,11,13,10,39,6.20
2008,11,13,10,40,6.30
2008,11,13,10,41,6.30
2008,11,13,10,42,6.30
2008,11,13,10,43,6.40
2008,11,13,10,44,6.50
2008,11,13,10,45,6.60
2008,11,13,10,46,6.70
2008,11,13,10,47,6.70
2008,11,13,10,48,6.80
2008,11,13,10,49,6.80
2008,11,13,10,50,6.90
2008,11,13,10,51,6.90
2008,11,13,10,52,7.00
2008,11,13,10,53,7.00
2008,11,13,10,54,7.10
2008,11,13,10,55,7.10
2008,11,13,10,56,7.20
2008,11,13,10,57,7.20
2008,11,13,10,58,7.20
2008,11,13,10,59,7.30
2008,11,13,11,00,7.40
2008,11,13,11,01,7.40
2008,11,13,11,02,7.50
2008,11,13,11,03,7.50
2008,11,13,11,04,7.60
2008,11,13,11,05,7.60
2008,11,13,11,06,7.60
2008,11,13,11,07,7.70
2008,11,13,11,08,7.70
2008,11,13,11,09,7.70
2008,11,13,11,10,7.80
2008,11,13,11,11,7.90
2008,11,13,11,12,7.90
2008,11,13,11,13,8.00
2008,11,13,11,14,8.10
2008,11,13,11,15,8.10
2008,11,13,11,16,8.10
2008,11,13,11,17,8.20
2008,11,13,11,18,8.20
2008,11,13,11,19,8.20
2008,11,13,11,20,8.20
2008,11,13,11,21,8.20
2008,11,13,11,22,8.30
2008,11,13,11,23,8.40
2008,11,13,11,24,8.50
2008,11,13,11,25,8.50
2008,11,13,11,26,8.60
2008,11,13,11,27,8.60
2008,11,13,11,28,8.70
2008,11,13,11,29,8.70
2008,11,13,11,30,8.70
2008,11,13,11,31,8.70
2008,11,13,11,32,8.70
2008,11,13,11,33,8.70
2008,11,13,11,34,8.70
2008,11,13,11,35,8.70
2008,11,13,11,36,8.70
2008,11,13,11,37,8.70
2008,11,13,11,38,8.70
2008,11,13,11,39,8.70
2008,11,13,11,40,8.70
2008,11,13,11,41,8.70
2008,11,13,11,42,8.80
2008,11,13,11,43,8.80
2008,11,13,11,44,8.80
2008,11,13,11,45,8.80
2008,11,13,11,46,8.90
2008,11,13,11,47,8.90
2008,11,13,11,48,8.90
2008,11,13,11,49,8.90
2008,11,13,11,50,8.90
2008,11,13,11,51,8.90
2008,11,13,11,52,9.00
2008,11,13,11,53,9.00
2008,11,13,11,54,9.10
2008,11,13,11,55,9.10
2008,11,13,11,56,9.10
2008,11,13,11,57,9.10
2008,11,13,11,58,9.10
2008,11,13,11,59,9.20
2008,11,13,12,00,9.20
2008,11,13,12,01,9.20
2008,11,13,12,02,9.20
2008,11,13,12,03,9.20
2008,11,13,12,04,9.30
2008,11,13,12,05,9.30
2008,11,13,12,06,9.30
2008,11,13,12,07,9.40
2008,11,13,12,08,9.40
2008,11,13,12,09,9.50
2008,11,13,12,10,9.50
2008,11,13,12,11,9.60
2008,11,13,12,12,9.60
2008,11,13,12,13,9.60
2008,11,13,12,14,9.60
2008,11,13,12,15,9.60
2008,11,13,12,16,9.70
2008,11,13,12,17,9.70
2008,11,13,12,18,9.80
2008,11,13,12,19,9.80
2008,11,13,12,20,9.80
2008,11,13,12,21,9.80
2008,11,13,12,22,9.80
2008,11,13,12,23,9.80
2008,11,13,12,24,9.80
2008,11,13,12,25,9.80
2008,11,13,12,26,9.80
2008,11,13,12,27,9.80
2008,11,13,12,28,9.80
2008,11,13,12,29,9.80
2008,11,13,12,30,9.80
2008,11,13,12,31,9.80
2008,11,13,12,32,9.80
2008,11,13,12,33,9.80
2008,11,13,12,34,9.80
2008,11,13,12,35,9.80
2008,11,13,12,36,9.90
2008,11,13,12,37,9.90
2008,11,13,12,38,10.00
2008,11,13,12,39,10.00
2008,11,13,12,40,10.10
2008,11,13,12,41,10.10
2008,11,13,12,42,10.20
2008,11,13,12,43,10.20
2008,11,13,12,44,10.20
2008,11,13,12,45,10.20
2008,11,13,12,46,10.20
2008,11,13,12,47,10.30
2008,11,13,12,48,10.30
2008,11,13,12,49,10.30
2008,11,13,12,50,10.30
2008,11,13,12,51,10.30
2008,11,13,12,52,10.30
2008,11,13,12,53,10.40
2008,11,13,12,54,10.40
2008,11,13,12,55,10.40
2008,11,13,12,56,10.40
2008,11,13,12,57,10.40
2008,11,13,12,58,10.40
2008,11,13,12,59,10.40
2008,11,13,13,00,10.40
2008,11,13,13,01,10.40
2008,11,13,13,02,10.40
2008,11,13,13,03,10.50
2008,11,13,13,04,10.50
2008,11,13,13,05,10.50
2008,11,13,13,06,10.60
2008,11,13,13,07,10.60
2008,11,13,13,08,10.60
2008,11,13,13,09,10.60
2008,11,13,13,10,10.60
2008,11,13,13,11,10.60
2008,11,13,13,12,10.60
2008,11,13,13,13,10.60
2008,11,13,13,14,10.60
2008,11,13,13,15,10.60
2008,11,13,13,16,10.60
2008,11,13,13,17,10.70
2008,11,13,13,18,10.70
2008,11,13,13,19,10.80
2008,11,13,13,20,10.80
2008,11,13,13,21,11.00
2008,11,13,13,22,11.00
2008,11,13,13,23,11.10
2008,11,13,13,24,11.20
2008,11,13,13,25,11.30
2008,11,13,13,26,11.40
2008,11,13,13,27,11.40
2008,11,13,13,28,11.50
2008,11,13,13,29,11.60
2008,11,13,13,30,11.60
2008,11,13,13,31,11.70
2008,11,13,13,32,11.80
2008,11,13,13,33,11.80
2008,11,13,13,34,11.90
2008,11,13,13,35,11.90
2008,11,13,13,36,12.00
2008,11,13,13,37,12.00
2008,11,13,13,38,12.10
2008,11,13,13,39,12.10
2008,11,13,13,40,12.20
2008,11,13,13,41,12.20
2008,11,13,13,42,12.30
2008,11,13,13,43,12.30
2008,11,13,13,44,12.30
2008,11,13,13,45,12.40
2008,11,13,13,46,12.40
2008,11,13,13,47,12.40
2008,11,13,13,48,12.40
2008,11,13,13,49,12.40
2008,11,13,13,50,12.40
2008,11,13,13,51,12.40
2008,11,13,13,52,12.40
2008,11,13,13,53,12.30
2008,11,13,13,54,12.30
2008,11,13,13,55,12.30
2008,11,13,13,56,12.30
2008,11,13,13,57,12.30
2008,11,13,13,58,12.30
2008,11,13,13,59,12.30
2008,11,13,14,00,12.30
2008,11,13,14,01,12.30
2008,11,13,14,02,12.30
2008,11,13,14,03,12.30
2008,11,13,14,04,12.40
2008,11,13,14,05,12.40
2008,11,13,14,06,12.40
2008,11,13,14,07,12.40
2008,11,13,14,08,12.40
2008,11,13,14,09,12.40
2008,11,13,14,10,12.40
2008,11,13,14,11,12.40
2008,11,13,14,12,12.40
2008,11,13,14,13,12.30
2008,11,13,14,14,12.30
2008,11,13,14,15,12.30
2008,11,13,14,16,12.30
2008,11,13,14,17,12.30
2008,11,13,14,18,12.20
2008,11,13,14,19,12.20
2008,11,13,14,20,12.20
2008,11,13,14,21,12.10
2008,11,13,14,22,12.10
2008,11,13,14,23,12.00
2008,11,13,14,24,12.00
2008,11,13,14,25,11.90
2008,11,13,14,26,11.90
2008,11,13,14,27,11.90
2008,11,13,14,28,11.80
2008,11,13,14,29,11.80
2008,11,13,14,30,11.70
2008,11,13,14,31,11.70
2008,11,13,14,32,11.70
2008,11,13,14,33,11.60
2008,11,13,14,34,11.60
2008,11,13,14,35,11.60
2008,11,13,14,36,11.60
2008,11,13,14,37,11.50
2008,11,13,14,38,11.50
2008,11,13,14,39,11.40
2008,11,13,14,40,11.40
2008,11,13,14,41,11.40
2008,11,13,14,42,11.30
2008,11,13,14,43,11.30
2008,11,13,14,44,11.30
2008,11,13,14,45,11.20
2008,11,13,14,46,11.20
2008,11,13,14,47,11.10
2008,11,13,14,48,11.00
2008,11,13,14,49,10.90
2008,11,13,14,50,10.80
2008,11,13,14,51,10.80
2008,11,13,14,52,10.70
2008,11,13,14,53,10.60
2008,11,13,14,54,10.60
2008,11,13,14,55,10.50
2008,11,13,14,56,10.40
2008,11,13,14,57,10.30
2008,11,13,14,58,10.30
2008,11,13,14,59,10.30
2008,11,13,15,00,10.20
2008,11,13,15,01,10.20
2008,11,13,15,02,10.10
2008,11,13,15,03,10.10
2008,11,13,15,04,10.10
2008,11,13,15,05,10.00
2008,11,13,15,06,10.00
2008,11,13,15,07,9.90
2008,11,13,15,08,9.90
2008,11,13,15,09,9.90
2008,11,13,15,10,9.90
2008,11,13,15,11,9.80
2008,11,13,15,12,9.80
2008,11,13,15,13,9.70
2008,11,13,15,14,9.70
2008,11,13,15,15,9.60
2008,11,13,15,16,9.60
2008,11,13,15,17,9.60
2008,11,13,15,18,9.50
2008,11,13,15,19,9.40
2008,11,13,15,20,9.40
2008,11,13,15,21,9.30
2008,11,13,15,22,9.30
2008,11,13,15,23,9.20
2008,11,13,15,24,9.20
2008,11,13,15,25,9.20
2008,11,13,15,26,9.10
2008,11,13,15,27,9.10
2008,11,13,15,28,9.00
2008,11,13,15,29,9.00
2008,11,13,15,30,8.90
2008,11,13,15,31,8.90
2008,11,13,15,32,8.90
2008,11,13,15,33,8.80
2008,11,13,15,34,8.80
2008,11,13,15,35,8.80
2008,11,13,15,36,8.70
2008,11,13,15,37,8.70
2008,11,13,15,38,8.70
2008,11,13,15,39,8.60
2008,11,13,15,40,8.60
2008,11,13,15,41,8.60
2008,11,13,15,42,8.50
2008,11,13,15,43,8.50
2008,11,13,15,44,8.40
2008,11,13,15,45,8.40
2008,11,13,15,46,8.30
2008,11,13,15,47,8.30
2008,11,13,15,48,8.30
2008,11,13,15,49,8.20
2008,11,13,15,50,8.20
2008,11,13,15,51,8.20
2008,11,13,15,52,8.20
2008,11,13,15,53,8.10
2008,11,13,15,54,8.10
2008,11,13,15,55,8.10
2008,11,13,15,56,8.00
2008,11,13,15,57,8.00
2008,11,13,15,58,8.00
2008,11,13,15,59,7.90
2008,11,13,16,00,7.90
2008,11,13,16,01,7.80
2008,11,13,16,02,7.80
2008,11,13,16,03,7.80
2008,11,13,16,04,7.70
2008,11,13,16,05,7.70
2008,11,13,16,06,7.70
2008,11,13,16,07,7.70
2008,11,13,16,08,7.60
2008,11,13,16,09,7.60
2008,11,13,16,10,7.60
2008,11,13,16,11,7.50
2008,11,13,16,12,7.50
2008,11,13,16,13,7.40
2008,11,13,16,14,7.40
2008,11,13,16,15,7.40
2008,11,13,16,16,7.40
2008,11,13,16,17,7.40
2008,11,13,16,18,7.30
2008,11,13,16,19,7.30
2008,11,13,16,20,7.30
2008,11,13,16,21,7.20
2008,11,13,16,22,7.20
2008,11,13,16,23,7.20
2008,11,13,16,24,7.20
2008,11,13,16,25,7.20
2008,11,13,16,26,7.10
2008,11,13,16,27,7.10
2008,11,13,16,28,7.00
2008,11,13,16,29,7.00
2008,11,13,16,30,7.00
2008,11,13,16,31,6.90
2008,11,13,16,32,6.90
2008,11,13,16,33,6.90
2008,11,13,16,34,6.80
2008,11,13,16,35,6.80
2008,11,13,16,36,6.80
2008,11,13,16,37,6.70
2008,11,13,16,38,6.70
2008,11,13,16,39,6.70
2008,11,13,16,40,6.60
2008,11,13,16,41,6.60
2008,11,13,16,42,6.60
2008,11,13,16,43,6.50
2008,11,13,16,44,6.50
2008,11,13,16,45,6.40
2008,11,13,16,46,6.40
2008,11,13,16,47,6.40
2008,11,13,16,48,6.30
2008,11,13,16,49,6.30
2008,11,13,16,50,6.30
2008,11,13,16,51,6.20
2008,11,13,16,52,6.20
2008,11,13,16,53,6.10
2008,11,13,16,54,6.10
2008,11,13,16,55,6.10
2008,11,13,16,56,6.00
2008,11,13,16,57,5.90
2008,11,13,16,58,5.90
2008,11,13,16,59,5.90
2008,11,13,17,00,5.80
2008,11,13,17,01,5.80
2008,11,13,17,02,5.70
2008,11,13,17,03,5.70
2008,11,13,17,04,5.60
2008,11,13,17,05,5.60
2008,11,13,17,06,5.60
2008,11,13,17,07,5.50
2008,11,13,17,08,5.50
2008,11,13,17,09,5.40
2008,11,13,17,10,5.40
2008,11,13,17,11,5.40
2008,11,13,17,12,5.40
2008,11,13,17,13,5.30
2008,11,13,17,14,5.30
2008,11,13,17,15,5.30
2008,11,13,17,16,5.20
2008,11,13,17,17,5.20
2008,11,13,17,18,5.20
2008,11,13,17,19,5.20
2008,11,13,17,20,5.20
2008,11,13,17,21,5.10
2008,11,13,17,22,5.10
2008,11,13,17,23,5.10
2008,11,13,17,24,5.10
2008,11,13,17,25,5.00
2008,11,13,17,26,5.00
2008,11,13,17,27,5.00
2008,11,13,17,28,4.90
2008,11,13,17,29,4.90
2008,11,13,17,30,4.90
2008,11,13,17,31,4.90
2008,11,13,17,32,4.90
2008,11,13,17,33,4.90
2008,11,13,17,34,4.80
2008,11,13,17,35,4.80
2008,11,13,17,36,4.80
2008,11,13,17,37,4.80
2008,11,13,17,38,4.80
2008,11,13,17,39,4.80
2008,11,13,17,40,4.80
2008,11,13,17,41,4.70
2008,11,13,17,42,4.70
2008,11,13,17,43,4.70
2008,11,13,17,44,4.70
2008,11,13,17,45,4.70
2008,11,13,17,46,4.70
2008,11,13,17,47,4.60
2008,11,13,17,48,4.60
2008,11,13,17,49,4.60
2008,11,13,17,50,4.60
2008,11,13,17,51,4.60
2008,11,13,17,52,4.60
2008,11,13,17,53,4.50
2008,11,13,17,54,4.50
2008,11,13,17,55,4.50
2008,11,13,17,56,4.50
2008,11,13,17,57,4.50
2008,11,13,17,58,4.40